Christchurch, New Zealand

1:25 PM NZDT on December 18, 2017 (GMT +1300)
Christchurch

Weather History for 93780 - November, 2013

Change the Weather History Date:

Sunday, November 24, 2013

  Actual Average Record
Temperature  
Mean Temperature 65 °F -  
Max Temperature 75 °F 65 °F - ()
Min Temperature 55 °F 47 °F - ()
Growing Degree Days 15 (Base 50)    
Moisture  
Dew Point 55 °F    
Average Humidity 75    
Maximum Humidity 100    
Minimum Humidity 35    
Precipitation  
Precipitation 0.00 in - - ()
Sea Level Pressure  
Sea Level Pressure 29.73 in    
Wind  
Wind Speed 7 mph ()    
Max Wind Speed 10 mph    
Max Gust Speed -    
Visibility 6.1 miles    
Events      
T = Trace of Precipitation, MM = Missing Value Source: Averaged Metar Reports

Daily Weather History Graph

Daily Weather History Graph

Search for Another Location

Airport or City:

Trip Planner

Search our weather history database for the weather conditions in past years. The results will help you decide how hot, cold, wet, or windy it might be!

Date:

Astronomy

Nov. 24, 2013 Rise Set
Actual Time 5:48 AM NZDT 8:45 PM NZDT
Civil Twilight 5:14 AM NZDT 9:19 PM NZDT
Nautical Twilight 4:31 AM NZDT 10:02 PM NZDT
Astronomical Twilight 3:40 AM NZDT 10:53 PM NZDT
Moon 12:41 AM NZDT (11/24) 11:16 AM NZDT (11/24)
Length of Visible Light 16h 05m
Length of Day
14h 57m
Waning Gibbous, 67% of the Moon is Illuminated
Nov 24
Waning Gibbous
Nov 26
Last Quarter
Dec 3
New
Dec 10
First Quarter
Dec 17
Full

Hourly Weather History & Observations

Time (NZDT) Temp. Dew Point Humidity Pressure Visibility Wind Dir Wind Speed Gust Speed Precip Events Conditions
12:00 AM 59.0 °F 55.4 °F 88% 29.98 in 6.2 mi NNE 6.9 mph - N/A   Overcast
12:30 AM 59.0 °F 55.4 °F 88% 29.98 in 6.2 mi ENE 9.2 mph - N/A   Overcast
1:00 AM 57.2 °F 55.4 °F 94% 29.98 in 6.2 mi NE 5.8 mph - N/A   Overcast
1:30 AM 57.2 °F 55.4 °F 94% 29.95 in 6.2 mi NE 8.1 mph - N/A   Overcast
2:00 AM 57.2 °F 55.4 °F 94% 29.95 in 6.2 mi NE 6.9 mph - N/A   Overcast
2:30 AM 57.2 °F 55.4 °F 94% 29.92 in 6.2 mi NE 6.9 mph - N/A   Overcast
3:00 AM 57.2 °F 55.4 °F 94% 29.92 in 6.2 mi NE 8.1 mph - N/A   Overcast
3:30 AM 57.2 °F 55.4 °F 94% 29.89 in 6.2 mi NE 5.8 mph - N/A   Overcast
4:00 AM 57.2 °F 55.4 °F 94% 29.89 in 5.0 mi ENE 8.1 mph - N/A   Overcast
4:30 AM 57.2 °F 55.4 °F 94% 29.89 in 4.3 mi ENE 8.1 mph - N/A   Overcast
5:00 AM 57.2 °F 55.4 °F 94% 29.86 in - ENE 8.1 mph - N/A   Overcast
5:30 AM 55.4 °F 55.4 °F 100% 29.86 in 5.6 mi NE 9.2 mph - N/A   Overcast
6:00 AM 55.4 °F 53.6 °F 94% 29.86 in 6.2 mi NE 9.2 mph - N/A   Overcast
6:30 AM 55.4 °F 53.6 °F 94% 29.83 in 6.2 mi NE 10.4 mph - N/A   Overcast
7:00 AM 55.4 °F 53.6 °F 94% 29.83 in 6.2 mi ENE 10.4 mph - N/A   Overcast
7:30 AM 57.2 °F 53.6 °F 88% 29.80 in 6.2 mi NE 8.1 mph - N/A   Overcast
8:00 AM 57.2 °F 53.6 °F 88% 29.80 in 6.2 mi ENE 9.2 mph - N/A   Mostly Cloudy
8:30 AM 59.0 °F 53.6 °F 82% 29.80 in 6.2 mi ENE 8.1 mph - N/A   Mostly Cloudy
9:00 AM 60.8 °F 53.6 °F 77% 29.77 in 6.2 mi ENE 6.9 mph - N/A   Scattered Clouds
9:30 AM 60.8 °F 53.6 °F 77% 29.77 in 6.2 mi NE 6.9 mph - N/A   Unknown
10:00 AM 64.4 °F 55.4 °F 73% 29.77 in 6.2 mi NE 5.8 mph - N/A   Unknown
10:30 AM 66.2 °F 55.4 °F 68% 29.74 in 6.2 mi East 5.8 mph - N/A   Unknown
11:00 AM 66.2 °F 55.4 °F 68% 29.74 in 6.2 mi East 6.9 mph - N/A   Unknown
11:30 AM 68.0 °F 55.4 °F 64% 29.74 in 6.2 mi ENE 6.9 mph - N/A   Unknown
12:00 PM 69.8 °F 55.4 °F 60% 29.71 in 6.2 mi East 6.9 mph - N/A   Unknown
12:30 PM 73.4 °F 53.6 °F 50% 29.71 in 6.2 mi ENE 8.1 mph - N/A   Unknown
1:00 PM 73.4 °F 57.2 °F 57% 29.68 in 6.2 mi East 8.1 mph - N/A   Unknown
1:30 PM 73.4 °F 55.4 °F 53% 29.68 in 6.2 mi East 8.1 mph - N/A   Unknown
2:00 PM 73.4 °F 55.4 °F 53% 29.65 in 6.2 mi East 8.1 mph - N/A   Unknown
2:30 PM 73.4 °F 53.6 °F 50% 29.65 in 6.2 mi ENE 9.2 mph - N/A   Unknown
3:00 PM 75.2 °F 55.4 °F 50% 29.62 in 6.2 mi ENE 8.1 mph - N/A   Unknown
3:30 PM 73.4 °F 55.4 °F 53% 29.62 in 6.2 mi East 9.2 mph - N/A   Unknown
4:00 PM 73.4 °F 57.2 °F 57% 29.62 in 6.2 mi East 8.1 mph - N/A   Unknown
4:30 PM 69.8 °F 55.4 °F 60% 29.59 in 6.2 mi East 8.1 mph - N/A   Unknown
5:00 PM 71.6 °F 57.2 °F 60% 29.59 in 6.2 mi ESE 6.9 mph - N/A   Unknown
5:30 PM 71.6 °F 53.6 °F 53% 29.59 in 6.2 mi SE 4.6 mph - N/A   Unknown
6:00 PM 71.6 °F 59.0 °F 64% 29.59 in 6.2 mi SSW 10.4 mph - N/A   Unknown
6:30 PM 68.0 °F 59.0 °F 73% 29.56 in 6.2 mi SSW 6.9 mph - N/A   Unknown
7:00 PM 66.2 °F 59.0 °F 78% 29.56 in 6.2 mi SSW 8.1 mph - N/A   Unknown
7:30 PM 64.4 °F 59.0 °F 83% 29.56 in 6.2 mi South 3.5 mph - N/A   Unknown
8:00 PM 62.6 °F 57.2 °F 82% 29.56 in 6.2 mi SSW 4.6 mph - N/A   Unknown
8:30 PM 59.0 °F 55.4 °F 88% 29.56 in 6.2 mi WSW 3.5 mph - N/A   Unknown
9:00 PM 60.8 °F 57.2 °F 88% 29.56 in 6.2 mi North 2.3 mph - N/A   Unknown
9:30 PM 64.4 °F 55.4 °F 73% 29.56 in 6.2 mi ENE 2.3 mph - N/A   Unknown
10:00 PM 60.8 °F 53.6 °F 77% 29.56 in 6.2 mi North 3.5 mph - N/A   Unknown
10:30 PM 62.6 °F 51.8 °F 68% 29.59 in 6.2 mi North 3.5 mph - N/A   Unknown
11:00 PM 66.2 °F 41.0 °F 40% 29.59 in 6.2 mi NNW 8.1 mph - N/A   Unknown
11:30 PM 68.0 °F 39.2 °F 35% 29.59 in 6.2 mi NW 3.5 mph - N/A   Unknown